| time (UTC) | temp F | wind direction | speed MPH | gust MPH | rain 1hr in | rain 24hr in | rain mn in | humidity % | barometer mb |
| 20260906230105 | 79 | 0 | 0.0 | 3.0 | 0.00 | 0.18 | 0.18 | 72 | 1013.6 |
| 20260906230033 | 79 | 355 | 0.0 | 3.0 | 0.00 | 0.18 | 0.18 | 73 | 1010.2 |
| 20260906224601 | 79 | 0 | 0.0 | 3.0 | 0.00 | 0.18 | 0.18 | 75 | 1013.5 |
| 20260906224533 | 79 | 355 | 0.0 | 3.0 | 0.00 | 0.18 | 0.18 | 75 | 1010.2 |
| 20260906223101 | 78 | 0 | 0.0 | 3.0 | 0.00 | 0.18 | 0.18 | 75 | 1013.6 |
| 20260906223031 | 78 | 355 | 0.0 | 3.0 | 0.00 | 0.18 | 0.18 | 76 | 1010.3 |
| 20260906221558 | 77 | 0 | 0.0 | 2.0 | 0.00 | 0.18 | 0.18 | 76 | 1013.8 |
| 20260906221527 | 77 | 11 | 0.0 | 2.0 | 0.00 | 0.18 | 0.18 | 76 | 1010.5 |
| 20260906220106 | 76 | 0 | 0.0 | 0.0 | 0.00 | 0.18 | 0.18 | 81 | 1013.9 |
| 20260906220026 | 76 | 11 | 0.0 | 1.0 | 0.00 | 0.18 | 0.18 | 81 | 1010.7 |
| 20260906214614 | 75 | 0 | 0.0 | 2.0 | 0.00 | 0.18 | 0.18 | 83 | 1014.2 |
| 20260906214522 | 75 | 12 | 0.0 | 1.0 | 0.00 | 0.18 | 0.18 | 83 | 1010.7 |
| 20260906213106 | 74 | 0 | 0.0 | 4.0 | 0.00 | 0.18 | 0.18 | 87 | 1014.2 |
| 20260906213021 | 74 | 12 | 1.0 | 4.0 | 0.00 | 0.18 | 0.18 | 87 | 1011.1 |
| 20260906211607 | 73 | 0 | 0.0 | 2.0 | 0.00 | 0.18 | 0.18 | 89 | 1014.6 |
| 20260906211519 | 73 | 12 | 0.0 | 2.0 | 0.00 | 0.18 | 0.18 | 90 | 1011.3 |
| 20260906210107 | 73 | 0 | 0.0 | 2.0 | 0.00 | 0.18 | 0.18 | 91 | 1014.8 |
| 20260906210017 | 73 | 12 | 0.0 | 2.0 | 0.00 | 0.18 | 0.18 | 92 | 1011.5 |
| 20260906204613 | 72 | 11 | 0.0 | 2.0 | 0.01 | 0.18 | 0.18 | 92 | 1014.9 |
| 20260906204520 | 72 | 11 | 0.0 | 2.0 | 0.01 | 0.18 | 0.18 | 92 | 1011.8 |
| 20260906203101 | 71 | 11 | 0.0 | 3.0 | 0.04 | 0.18 | 0.18 | 91 | 1015.4 |
| 20260906203014 | 70 | 11 | 0.0 | 3.0 | 0.05 | 0.18 | 0.18 | 92 | 1012.1 |
| 20260906201648 | 70 | 0 | 0.0 | 2.0 | 0.08 | 0.18 | 0.18 | 90 | 1015.5 |
| 20260906201512 | 70 | 11 | 0.0 | 2.0 | 0.08 | 0.18 | 0.18 | 91 | 1012.4 |
| 20260906200105 | 69 | 0 | 0.0 | 4.0 | 0.09 | 0.18 | 0.18 | 89 | 1015.8 |
| 20260906200010 | 69 | 9 | 0.0 | 4.0 | 0.10 | 0.18 | 0.18 | 90 | 1012.8 |
| 20260906194601 | 69 | 12 | 0.0 | 7.0 | 0.10 | 0.17 | 0.17 | 89 | 1016.3 |
| 20260906194509 | 69 | 12 | 0.0 | 6.0 | 0.10 | 0.17 | 0.17 | 89 | 1013.2 |
| 20260906193058 | 69 | 0 | 0.0 | 4.0 | 0.08 | 0.13 | 0.13 | 88 | 1016.5 |
| 20260906193009 | 69 | 5 | 0.0 | 4.0 | 0.08 | 0.13 | 0.13 | 89 | 1013.3 |
| 20260906191613 | 68 | 0 | 1.0 | 3.0 | 0.05 | 0.10 | 0.10 | 86 | 1016.6 |
| 20260906191509 | 68 | 5 | 1.0 | 3.0 | 0.05 | 0.10 | 0.10 | 87 | 1013.3 |
| 20260906190058 | 69 | 9 | 0.0 | 2.0 | 0.03 | 0.08 | 0.08 | 84 | 1016.4 |
| 20260906190006 | 69 | 9 | 0.0 | 2.0 | 0.03 | 0.08 | 0.08 | 85 | 1013.3 |
| 20260906184606 | 69 | 0 | 0.0 | 3.0 | 0.03 | 0.07 | 0.07 | 83 | 1016.5 |
| 20260906184505 | 69 | 9 | 0.0 | 3.0 | 0.03 | 0.07 | 0.07 | 84 | 1013.2 |
| 20260906183100 | 69 | 5 | 0.0 | 4.0 | 0.01 | 0.05 | 0.05 | 82 | 1016.3 |
| 20260906183006 | 69 | 5 | 0.0 | 4.0 | 0.01 | 0.05 | 0.05 | 82 | 1013.0 |
| 20260906181557 | 69 | 9 | 0.0 | 4.0 | 0.01 | 0.05 | 0.05 | 81 | 1016.3 |
| 20260906181503 | 69 | 5 | 0.0 | 4.0 | 0.01 | 0.05 | 0.05 | 82 | 1012.8 |
| 20260906180114 | 69 | 0 | 0.0 | 2.0 | 0.01 | 0.05 | 0.05 | 80 | 1016.2 |
| 20260906180002 | 69 | 9 | 0.0 | 2.0 | 0.01 | 0.05 | 0.05 | 81 | 1012.8 |
| 20260906174602 | 70 | 0 | 0.0 | 2.0 | 0.00 | 0.04 | 0.04 | 81 | 1016.1 |
| 20260906174501 | 70 | 9 | 0.0 | 2.0 | 0.00 | 0.04 | 0.04 | 82 | 1012.6 |
| 20260906173105 | 70 | 0 | 0.0 | 0.0 | 0.00 | 0.04 | 0.04 | 83 | 1015.9 |
| 20260906173002 | 70 | 9 | 0.0 | 0.0 | 0.00 | 0.04 | 0.04 | 83 | 1012.5 |
| 20260906171602 | 70 | 0 | 0.0 | 0.0 | 0.00 | 0.04 | 0.04 | 82 | 1015.6 |
| 20260906171600 | 70 | 9 | 0.0 | 0.0 | 0.00 | 0.04 | 0.04 | 83 | 1012.1 |
| 20260906170107 | 70 | 9 | 0.0 | 2.0 | 0.00 | 0.04 | 0.04 | 83 | 1011.8 |
| 20260906170058 | 70 | 0 | 0.0 | 2.0 | 0.00 | 0.04 | 0.04 | 82 | 1015.3 |
| 20260906164603 | 70 | 0 | 0.0 | 2.0 | 0.00 | 0.04 | 0.04 | 83 | 1015.2 |
| 20260906164558 | 70 | 9 | 0.0 | 2.0 | 0.00 | 0.04 | 0.04 | 84 | 1011.7 |
| 20260906163121 | 70 | 0 | 0.0 | 1.0 | 0.01 | 0.04 | 0.04 | 85 | 1015.1 |
| 20260906163058 | 70 | 9 | 0.0 | 3.0 | 0.01 | 0.04 | 0.04 | 85 | 1011.7 |
| 20260906161557 | 70 | 9 | 0.0 | 3.0 | 0.02 | 0.04 | 0.04 | 85 | 1011.5 |
| 20260906161555 | 70 | 9 | 0.0 | 3.0 | 0.02 | 0.04 | 0.04 | 85 | 1015.1 |
| 20260906160056 | 69 | 0 | 0.0 | 1.0 | 0.03 | 0.04 | 0.04 | 85 | 1014.9 |
| 20260906154603 | 69 | 0 | 0.0 | 1.0 | 0.03 | 0.04 | 0.04 | 82 | 1015.1 |
| 20260906154552 | 69 | 9 | 0.0 | 0.0 | 0.03 | 0.04 | 0.04 | 83 | 1011.7 |
| 20260906153059 | 69 | 0 | 0.0 | 1.0 | 0.02 | 0.03 | 0.03 | 79 | 1015.7 |
| 20260906153050 | 69 | 9 | 0.0 | 1.0 | 0.02 | 0.03 | 0.03 | 80 | 1011.7 |
| 20260906151557 | 68 | 0 | 0.0 | 1.0 | 0.01 | 0.02 | 0.02 | 75 | 1015.9 |
| 20260906151552 | 68 | 9 | 0.0 | 1.0 | 0.01 | 0.02 | 0.02 | 76 | 1011.7 |
| 20260906150051 | 69 | 0 | 0.0 | 2.0 | 0.00 | 0.01 | 0.01 | 79 | 1016.1 |
| 20260906150046 | 69 | 119 | 0.0 | 2.0 | 0.00 | 0.01 | 0.01 | 80 | 1011.3 |
| 20260906144600 | 69 | 0 | 0.0 | 1.0 | 0.00 | 0.01 | 0.01 | 78 | 1015.7 |
| 20260906144548 | 69 | 122 | 0.0 | 1.0 | 0.00 | 0.01 | 0.01 | 79 | 1011.2 |
| 20260906143058 | 69 | 0 | 0.0 | 0.0 | 0.00 | 0.01 | 0.01 | 77 | 1015.6 |
| 20260906143045 | 69 | 122 | 0.0 | 0.0 | 0.00 | 0.01 | 0.01 | 78 | 1011.1 |
| 20260906141556 | 69 | 0 | 0.0 | 1.0 | 0.00 | 0.01 | 0.01 | 78 | 1015.2 |
| 20260906141543 | 69 | 122 | 0.0 | 0.0 | 0.00 | 0.01 | 0.01 | 78 | 1010.7 |
| 20260906140103 | 69 | 0 | 0.0 | 1.0 | 0.00 | 0.01 | 0.01 | 77 | 1015.0 |
| 20260906140048 | 69 | 122 | 0.0 | 1.0 | 0.00 | 0.01 | 0.01 | 77 | 1010.5 |
| 20260906134600 | 69 | 0 | 0.0 | 0.0 | 0.00 | 0.01 | 0.01 | 77 | 1014.9 |
| 20260906134539 | 69 | 122 | 0.0 | 0.0 | 0.00 | 0.01 | 0.01 | 78 | 1010.1 |
| 20260906133121 | 69 | 0 | 0.0 | 0.0 | 0.00 | 0.01 | 0.01 | 75 | 1014.7 |
| 20260906133044 | 69 | 122 | 0.0 | 0.0 | 0.00 | 0.01 | 0.01 | 76 | 1009.9 |
| 20260906131613 | 70 | 0 | 0.0 | 0.0 | 0.01 | 0.01 | 0.01 | 77 | 1014.4 |
| 20260906131535 | 70 | 122 | 0.0 | 0.0 | 0.01 | 0.01 | 0.01 | 78 | 1009.8 |
| 20260906130103 | 70 | 0 | 0.0 | 0.0 | 0.01 | 0.01 | 0.01 | 78 | 1014.3 |
| 20260906130033 | 70 | 122 | 0.0 | 0.0 | 0.01 | 0.01 | 0.01 | 78 | 1009.7 |
| 20260906124600 | 71 | 0 | 0.0 | 0.0 | 0.01 | 0.01 | 0.01 | 78 | 1014.2 |
| 20260906124537 | 71 | 122 | 0.0 | 0.0 | 0.01 | 0.01 | 0.01 | 78 | 1009.7 |
| 20260906123057 | 71 | 0 | 0.0 | 1.0 | 0.01 | 0.01 | 0.01 | 77 | 1014.1 |
| 20260906123035 | 71 | 122 | 0.0 | 1.0 | 0.01 | 0.01 | 0.01 | 78 | 1009.6 |
| 20260906121555 | 72 | 0 | 0.0 | 0.0 | 0.00 | 0.00 | 0.00 | 76 | 1014.3 |
| 20260906121532 | 72 | 122 | 0.0 | 0.0 | 0.00 | 0.00 | 0.00 | 76 | 1009.8 |
| 20260906120059 | 72 | 0 | 0.0 | 0.0 | 0.00 | 0.00 | 0.00 | 69 | 1014.6 |
| 20260906120025 | 72 | 122 | 0.0 | 0.0 | 0.00 | 0.00 | 0.00 | 69 | 1010.2 |
| 20260906114559 | 72 | 0 | 0.0 | 0.0 | 0.00 | 0.00 | 0.00 | 65 | 1014.7 |
| 20260906114523 | 72 | 122 | 0.0 | 0.0 | 0.00 | 0.00 | 0.00 | 65 | 1010.3 |
| 20260906113057 | 72 | 0 | 0.0 | 0.0 | 0.00 | 0.00 | 0.00 | 60 | 1014.7 |
| 20260906113022 | 72 | 122 | 0.0 | 0.0 | 0.00 | 0.00 | 0.00 | 60 | 1010.3 |
| 20260906111555 | 72 | 0 | 0.0 | 0.0 | 0.00 | 0.00 | 0.00 | 60 | 1014.7 |
| 20260906111520 | 72 | 122 | 0.0 | 0.0 | 0.00 | 0.00 | 0.00 | 60 | 1010.3 |
| 20260906110052 | 73 | 0 | 0.0 | 0.0 | 0.00 | 0.00 | 0.00 | 57 | 1014.6 |
| 20260906110022 | 73 | 122 | 0.0 | 0.0 | 0.00 | 0.00 | 0.00 | 57 | 1010.3 |
| 20260906104558 | 73 | 0 | 0.0 | 0.0 | 0.00 | 0.00 | 0.00 | 49 | 1014.6 |
| 20260906104517 | 73 | 122 | 0.0 | 0.0 | 0.00 | 0.00 | 0.00 | 50 | 1010.1 |
| 20260906103058 | 73 | 0 | 0.0 | 0.0 | 0.00 | 0.00 | 0.00 | 46 | 1014.6 |
| 20260906103038 | 73 | 122 | 0.0 | 0.0 | 0.00 | 0.00 | 0.00 | 45 | 1010.4 |
| 20260906101603 | 73 | 0 | 0.0 | 0.0 | 0.00 | 0.00 | 0.00 | 44 | 1014.6 |
| 20260906101515 | 73 | 122 | 0.0 | 0.0 | 0.00 | 0.00 | 0.00 | 45 | 1010.4 |
| 20260906100111 | 73 | 0 | 0.0 | 0.0 | 0.00 | 0.00 | 0.00 | 46 | 1014.3 |
| 20260906100024 | 73 | 122 | 0.0 | 0.0 | 0.00 | 0.00 | 0.00 | 47 | 1010.0 |
| 20260906094621 | 73 | 0 | 0.0 | 0.0 | 0.00 | 0.00 | 0.00 | 47 | 1014.3 |
| 20260906094513 | 73 | 122 | 0.0 | 0.0 | 0.00 | 0.00 | 0.00 | 48 | 1010.0 |
| 20260906093104 | 73 | 0 | 0.0 | 0.0 | 0.00 | 0.00 | 0.00 | 49 | 1014.3 |
| 20260906093012 | 73 | 122 | 0.0 | 0.0 | 0.00 | 0.00 | 0.00 | 49 | 1010.1 |
| 20260906091604 | 73 | 0 | 0.0 | 0.0 | 0.00 | 0.00 | 0.00 | 48 | 1014.4 |
| 20260906091510 | 73 | 122 | 0.0 | 0.0 | 0.00 | 0.00 | 0.00 | 48 | 1010.2 |
| 20260906090115 | 73 | 0 | 0.0 | 0.0 | 0.00 | 0.00 | 0.00 | 45 | 1014.4 |
| 20260906090009 | 73 | 122 | 0.0 | 0.0 | 0.00 | 0.00 | 0.00 | 45 | 1010.3 |
| 20260906084627 | 73 | 0 | 0.0 | 0.0 | 0.00 | 0.00 | 0.00 | 45 | 1014.5 |
| 20260906084509 | 73 | 122 | 0.0 | 0.0 | 0.00 | 0.00 | 0.00 | 46 | 1010.4 |
| 20260906083056 | 74 | 0 | 0.0 | 0.0 | 0.00 | 0.00 | 0.00 | 45 | 1014.6 |
| 20260906083007 | 74 | 122 | 0.0 | 0.0 | 0.00 | 0.00 | 0.00 | 45 | 1010.5 |
| 20260906081557 | 74 | 0 | 0.0 | 0.0 | 0.00 | 0.00 | 0.00 | 44 | 1014.7 |
| 20260906081505 | 74 | 122 | 0.0 | 0.0 | 0.00 | 0.00 | 0.00 | 44 | 1010.6 |
| 20260906080104 | 74 | 0 | 0.0 | 0.0 | 0.00 | 0.00 | 0.00 | 43 | 1014.7 |
| 20260906080007 | 74 | 122 | 0.0 | 0.0 | 0.00 | 0.00 | 0.00 | 43 | 1010.6 |
| 20260906074600 | 74 | 0 | 0.0 | 0.0 | 0.00 | 0.00 | 0.00 | 43 | 1014.6 |
| 20260906074504 | 74 | 122 | 0.0 | 0.0 | 0.00 | 0.00 | 0.00 | 43 | 1010.5 |
| 20260906073057 | 74 | 0 | 0.0 | 0.0 | 0.00 | 0.00 | 0.00 | 43 | 1014.4 |
| 20260906073003 | 74 | 122 | 0.0 | 0.0 | 0.00 | 0.00 | 0.00 | 43 | 1010.6 |
| 20260906071602 | 74 | 0 | 0.0 | 0.0 | 0.00 | 0.00 | 0.00 | 42 | 1014.8 |
| 20260906071500 | 74 | 122 | 0.0 | 0.0 | 0.00 | 0.00 | 0.00 | 42 | 1010.6 |
| 20260906070104 | 74 | 0 | 0.0 | 0.0 | 0.00 | 0.00 | 0.00 | 42 | 1014.4 |
| 20260906070100 | 74 | 122 | 0.0 | 0.0 | 0.00 | 0.00 | 0.00 | 42 | 1010.2 |
| 20260906064559 | 75 | 122 | 0.0 | 0.0 | 0.00 | 0.00 | 0.00 | 42 | 1010.4 |
| 20260906063100 | 75 | 122 | 0.0 | 0.0 | 0.00 | 0.00 | 0.00 | 42 | 1010.4 |
| 20260906063057 | 75 | 0 | 0.0 | 0.0 | 0.00 | 0.00 | 0.00 | 41 | 1014.3 |
| 20260906061615 | 75 | 122 | 0.0 | 0.0 | 0.00 | 0.00 | 0.00 | 41 | 1010.6 |
| 20260906061556 | 75 | 0 | 0.0 | 0.0 | 0.00 | 0.00 | 0.00 | 41 | 1014.4 |
| 20260906060107 | 76 | 0 | 0.0 | 0.0 | 0.00 | 0.00 | 0.00 | 41 | 1014.4 |
| 20260906054559 | 76 | 0 | 0.0 | 0.0 | 0.00 | 0.00 | 0.00 | 39 | 1014.6 |
| 20260906053058 | 77 | 0 | 0.0 | 0.0 | 0.00 | 0.00 | 0.00 | 38 | 1014.3 |
| 20260906051605 | 78 | 122 | 0.0 | 0.0 | 0.00 | 0.00 | 0.00 | 38 | 1010.6 |
| 20260906051559 | 78 | 0 | 0.0 | 0.0 | 0.00 | 0.00 | 0.00 | 38 | 1014.4 |
| 20260906050056 | 78 | 0 | 0.0 | 2.0 | 0.00 | 0.00 | 0.00 | 38 | 1014.4 |
| 20260906044559 | 79 | 0 | 0.0 | 2.0 | 0.00 | 0.00 | 0.00 | 39 | 1014.3 |
| 20260906044556 | 79 | 122 | 0.0 | 2.0 | 0.00 | 0.00 | 0.00 | 39 | 1010.5 |
| 20260906043056 | 79 | 0 | 0.0 | 2.0 | 0.00 | 0.00 | 0.00 | 34 | 1014.6 |
| 20260906041555 | 79 | 122 | 0.0 | 1.0 | 0.00 | 0.00 | 0.00 | 33 | 1010.6 |
| 20260906040104 | 80 | 0 | 0.0 | 1.0 | 0.00 | 0.00 | 0.00 | 31 | 1014.5 |
| 20260906040054 | 80 | 122 | 0.0 | 1.0 | 0.00 | 0.00 | 0.00 | 32 | 1010.4 |
| 20260906034602 | 80 | 122 | 0.0 | 0.0 | 0.00 | 0.00 | 0.00 | 31 | 1010.4 |
| 20260906034559 | 80 | 0 | 0.0 | 0.0 | 0.00 | 0.00 | 0.00 | 30 | 1014.2 |
| 20260906033101 | 81 | 0 | 0.0 | 4.0 | 0.00 | 0.00 | 0.00 | 29 | 1014.3 |
| 20260906033056 | 81 | 122 | 0.0 | 2.0 | 0.00 | 0.00 | 0.00 | 29 | 1010.2 |
| 20260906031603 | 82 | 122 | 0.0 | 2.0 | 0.00 | 0.00 | 0.00 | 28 | 1014.2 |
| 20260906031554 | 82 | 122 | 0.0 | 2.0 | 0.00 | 0.00 | 0.00 | 28 | 1010.1 |
| 20260906030059 | 82 | 0 | 0.0 | 3.0 | 0.00 | 0.00 | 0.00 | 27 | 1014.1 |
| 20260906030053 | 82 | 122 | 0.0 | 3.0 | 0.00 | 0.00 | 0.00 | 28 | 1010.0 |
| 20260906024556 | 83 | 0 | 0.0 | 4.0 | 0.00 | 0.00 | 0.00 | 28 | 1014.0 |
| 20260906024552 | 83 | 122 | 0.0 | 4.0 | 0.00 | 0.00 | 0.00 | 29 | 1009.7 |
| 20260906023055 | 84 | 0 | 1.0 | 4.0 | 0.00 | 0.00 | 0.00 | 29 | 1014.0 |
| 20260906023052 | 84 | 122 | 1.0 | 4.0 | 0.00 | 0.00 | 0.00 | 29 | 1009.7 |
| 20260906021600 | 85 | 122 | 0.0 | 4.0 | 0.00 | 0.00 | 0.00 | 31 | 1013.9 |
| 20260906021550 | 85 | 122 | 0.0 | 3.0 | 0.00 | 0.00 | 0.00 | 31 | 1009.6 |
| 20260906020057 | 86 | 0 | 0.0 | 5.0 | 0.00 | 0.00 | 0.00 | 33 | 1013.8 |
| 20260906020049 | 86 | 234 | 0.0 | 5.0 | 0.00 | 0.00 | 0.00 | 34 | 1009.5 |
| 20260906014611 | 87 | 219 | 2.0 | 6.0 | 0.00 | 0.00 | 0.00 | 33 | 1013.7 |
| 20260906014553 | 87 | 219 | 2.0 | 6.0 | 0.00 | 0.00 | 0.00 | 34 | 1009.5 |
| 20260906013100 | 87 | 218 | 1.0 | 6.0 | 0.00 | 0.00 | 0.00 | 32 | 1013.8 |
| 20260906013050 | 87 | 218 | 1.0 | 5.0 | 0.00 | 0.00 | 0.00 | 33 | 1009.6 |
| 20260906011613 | 88 | 171 | 1.0 | 7.0 | 0.00 | 0.00 | 0.00 | 32 | 1013.8 |
| 20260906011547 | 88 | 171 | 1.0 | 6.0 | 0.00 | 0.00 | 0.00 | 32 | 1009.5 |
| 20260906010059 | 89 | 200 | 1.0 | 6.0 | 0.00 | 0.00 | 0.00 | 32 | 1013.6 |
| 20260906010047 | 89 | 200 | 0.0 | 5.0 | 0.00 | 0.00 | 0.00 | 33 | 1009.5 |
| 20260906004605 | 89 | 0 | 1.0 | 6.0 | 0.00 | 0.00 | 0.00 | 31 | 1013.6 |
| 20260906004546 | 89 | 209 | 0.0 | 4.0 | 0.00 | 0.00 | 0.00 | 32 | 1009.5 |
| 20260906003103 | 90 | 0 | 0.0 | 7.0 | 0.00 | 0.00 | 0.00 | 31 | 1013.5 |
| 20260906003046 | 90 | 202 | 0.0 | 7.0 | 0.00 | 0.00 | 0.00 | 31 | 1009.3 |
| 20260906001602 | 90 | 0 | 0.0 | 8.0 | 0.00 | 0.00 | 0.00 | 30 | 1013.4 |
| 20260906001546 | 90 | 163 | 0.0 | 7.0 | 0.00 | 0.00 | 0.00 | 31 | 1009.3 |
| 20260906000057 | 91 | 221 | 1.0 | 6.0 | 0.00 | 0.00 | 0.00 | 30 | 1013.4 |
| 20260906000045 | 91 | 221 | 2.0 | 6.0 | 0.00 | 0.00 | 0.00 | 31 | 1009.2 |
| 20260905234553 | 91 | 0 | 2.0 | 6.0 | 0.00 | 0.00 | 0.00 | 29 | 1013.4 |
| 20260905234545 | 91 | 171 | 1.0 | 6.0 | 0.00 | 0.00 | 0.00 | 30 | 1009.2 |
| 20260905233123 | 92 | 0 | 1.0 | 6.0 | 0.00 | 0.00 | 0.00 | 30 | 1013.3 |
| 20260905233045 | 92 | 169 | 0.0 | 5.0 | 0.00 | 0.00 | 0.00 | 30 | 1009.2 |
| 20260905231558 | 92 | 202 | 1.0 | 5.0 | 0.00 | 0.00 | 0.00 | 31 | 1013.4 |
| 20260905231545 | 92 | 202 | 0.0 | 5.0 | 0.00 | 0.00 | 0.00 | 32 | 1009.4 |